Regional Weather Roundup
Issued by NWS

Home | Current Version | Previous Version | Graphics & Text | Print | Product List | Glossary On
Versions: 1 2 3 4 5 6 7 8 9 10 11 12 13 14 15 16 17 18 19 20 21 22 23 24 25 26 27 28 29 30 31 32 33 34 35 36 37 38 39 40 41 42 43 44 45 46 47 48 49 50
133
ASUS43 KBIS 220310
RWRND

NORTH DAKOTA REGIONAL WEATHER ROUNDUP
NATIONAL WEATHER SERVICE BISMARCK ND
1000 PM CDT SAT APR 21 2018

NOTE: "FAIR" INDICATES FEW OR NO CLOUDS BELOW 12,000 FEET WITH NO
SIGNIFICANT WEATHER AND/OR OBSTRUCTIONS TO VISIBILITY.


NDZ001>003-009>011-017-220400-
NORTHWEST NORTH DAKOTA

CITY           SKY/WX    TMP DP  RH WIND       PRES   REMARKS
WILLISTON      PTCLDY    57  40  52 S14       29.97R
MINOT          CLEAR     51  37  58 SE13      30.07R
MINOT AFB      CLEAR     50  38  64 S13       30.05R
$$

NDZ018>021-031>035-040>046-220400-
SOUTHWEST NORTH DAKOTA

CITY           SKY/WX    TMP DP  RH WIND       PRES   REMARKS
BISMARCK       CLEAR     48  36  63 S15       30.17R
DICKINSON      CLEAR     46  37  71 S18       30.06R
GARRISON         N/A     44  35  70 S14       30.10R
HETTINGER ARPT CLEAR     43  35  73 S15       30.12R
$$

NDZ004>008-012>016-024-026-027-054-220400-
NORTHEAST NORTH DAKOTA

CITY           SKY/WX    TMP DP  RH WIND       PRES   REMARKS
GRAND FORKS    FAIR      47  44  90 SE8       30.23S
GRND FRKS AFB  FAIR      48  43  85 SE9       30.23R
DEVILS LAKE    FAIR      48  35  60 S13       30.19R
$$

NDZ022-023-025-028>030-036>039-047>053-220400-
SOUTHEAST NORTH DAKOTA

CITY           SKY/WX    TMP DP  RH WIND       PRES   REMARKS
FARGO          FAIR      52  42  69 S14G23    30.27R
JAMESTOWN      CLEAR     45  38  76 S10       30.22R
$$





USA.gov is the U.S. government's official web portal to all federal, state and local government web resources and services.